Weather WX

World > North America > United States > North Carolina

Maysville, North Carolina Regional Weather

Lat: 34.90N, Lon: 77.23W
Wx Zone: NCZ092
Warning FLW WEATHER ALERT - (More Info. Click Here) Warning
Feedback

Maysville, NC Regional Weather

Expires:201907170300;;758567
ASUS42 KMHX 170213
RWRMHX
WEATHER ROUNDUP FOR EASTERN NORTH CAROLINA
NATIONAL WEATHER SERVICE NEWPORT/MOREHEAD CITY NC
1000 PM EDT TUE JUL 16 2019

NOTE: "FAIR" INDICATES FEW OR NO CLOUDS BELOW 12,000 FEET
WITH NO SIGNIFICANT WEATHER AND/OR OBSTRUCTIONS TO VISIBILITY


NCZ011>013-027>030-043-044-078>080-089-090>093-098-170300-
COASTAL PLAIN
  
CITY           SKY/WX    TMP DP  RH WIND       PRES   REMARKS
AHOSKIE        NOT AVBL                                               
CLINTON        FAIR      78  77  97 CALM      30.10R                  
ELIZABETHTOWN  FAIR      83  76  78 S6        30.09R                  
GOLDSBORO      FAIR      79  73  79 SE3       30.07R                  
GREENVILLE     LGT RAIN  77  73  88 CALM      30.09S                  
HAVELOCK       FAIR      83  75  77 S5        30.10R                  
KENANSVILLE    FAIR      77  73  88 CALM      30.10R                  
KINSTON        FAIR      78  76  94 CALM      30.09S                  
NEW BERN       LGT RAIN  80  78  94 CALM      30.10R                  
RICHLANDS      FAIR      81  76  84 S6        30.10R                  
ROCKY MOUNT    FAIR      81  71  71 S3        30.08R                  
WASHINGTON     DRIZZLE   80  66  61 CALM      30.09R                  
WHITEVILLE     FAIR      83  77  83 S5        30.09R                  

$$


SKY/WX - Weather  TMP - Temperature  DP - Dew Point  RH - Relative Humidity
WIND - Wind Direction/Speed PRES - Barometric Pressure VSB - Visibility
WCI - Wind Chill Index E13G22 Wind - East Wind 13 mph/Gusts of 22 mph